Location: Bogotá
(4.6533°N, 74.0837°W)
Time: 05:11:21
(UTC+00:00)

ISS - Pass Details

Date: 11 September 2024
Orbit: 414 x 424 km, 51.6° (Epoch: 16 September)

Event Time Altitude Azimuth Distance (km) Brightness Sun altitude
Rises 23:07:03 0° 239° (WSW) 2,339 1.0 -3.1°
Reaches altitude 10° 23:09:29 10° 256° (WSW) 1,476 0.5 -3.7°
Maximum altitude 23:12:03 20° 307° (NW) 1,000 -0.9 -4.4°
Drops below altitude 10° 23:14:35 10° 357° (N) 1,473 -0.9 -5.0°
Enters shadow 23:22:39 -15° 28° (NNE) 4,526 1.3 -7.0°
Exits shadow 23:50:14 -69° 60° (ENE) 12,336 3.6 -13.8°
